Location: Tabor
(49.4170°N, 14.6670°E)
Time: 18:31:18
(UTC+01:00)

ISS - Visible Passes

Search period start: 30 November 2023 00:00
Search period end: 10 December 2023 00:00
Orbit: 416 x 417 km, 51.6° (Epoch: 30 November)

Date Brightness Start Highest point End Pass type
(mag) Time Alt. Az. Time Alt. Az. Time Alt. Az.
30 Nov -3.8 17:29:34 10° WNW 17:32:56 76° NNE 17:34:45 25° E visible
30 Nov -0.9 19:06:29 10° W 19:07:40 18° W 19:07:40 18° W visible
01 Dec -3.7 16:41:09 10° WNW 16:44:29 64° N 16:47:50 10° E visible
01 Dec -3.0 18:17:57 10° WNW 18:21:12 46° SSW 18:21:29 44° SSW visible
02 Dec -3.5 17:29:27 10° WNW 17:32:47 66° SSW 17:35:24 15° SE visible
02 Dec -0.7 19:07:02 10° W 19:08:19 14° WSW 19:08:19 14° WSW visible
03 Dec -3.7 16:40:56 10° WNW 16:44:17 88° SSW 16:47:39 10° ESE visible
03 Dec -1.5 18:18:02 10° W 18:20:43 22° SW 18:22:23 16° S visible
04 Dec -2.0 17:29:14 10° W 17:32:17 33° SSW 17:35:20 10° SSE visible
05 Dec -2.7 16:40:30 10° WNW 16:43:45 48° SSW 16:47:00 10° SE visible
05 Dec -0.3 18:19:23 10° SW 18:19:50 10° SW 18:20:16 10° SW visible
06 Dec -0.7 17:29:14 10° W 17:31:23 16° SW 17:33:30 10° S visible
07 Dec -1.1 16:40:03 10° W 16:42:50 24° SW 16:45:35 10° SSE visible
09 Dec 0.0 16:40:27 10° WSW 16:41:31 11° SW 16:42:34 10° SSW visible
